| time (UTC) | temp C | wind direction | speed KPH | gust KPH | rain 1hr cm | rain 24hr cm | rain mn cm | humidity % | barometer mb |
| 20260504080440 | 12 | 198 | 4.8 | 11.3 | 0.00 | 0.00 | 0.00 | 47 | 997.2 |
| 20260504050639 | 13 | 188 | 1.6 | 3.2 | 0.00 | 0.00 | 0.00 | 47 | 1000.6 |
| 20260504045918 | 13 | 188 | 1.6 | 3.2 | 0.00 | 0.00 | 0.00 | 47 | 1000.7 |
| 20260504045417 | 13 | 204 | 1.6 | 3.2 | 0.00 | 0.00 | 0.00 | 46 | 1000.8 |
| 20260504044917 | 13 | 205 | 1.6 | 3.2 | 0.00 | 0.00 | 0.00 | 46 | 1000.9 |
| 20260504044417 | 13 | 205 | 1.6 | 3.2 | 0.00 | 0.00 | 0.00 | 46 | 1000.9 |
| 20260504043917 | 13 | 205 | 1.6 | 3.2 | 0.00 | 0.00 | 0.00 | 45 | 1001.0 |
| 20260504043417 | 13 | 209 | 1.6 | 3.2 | 0.00 | 0.00 | 0.00 | 45 | 1001.1 |
| 20260504042917 | 13 | 210 | 1.6 | 3.2 | 0.00 | 0.00 | 0.00 | 44 | 1001.1 |
| 20260504042641 | 13 | 211 | 1.6 | 3.2 | 0.00 | 0.00 | 0.00 | 45 | 1001.2 |
| 20260504041916 | 13 | 229 | 1.6 | 3.2 | 0.00 | 0.00 | 0.00 | 45 | 1001.3 |
| 20260504041417 | 13 | 231 | 1.6 | 3.2 | 0.00 | 0.00 | 0.00 | 45 | 1001.3 |
| 20260504040917 | 13 | 235 | 0.0 | 1.6 | 0.00 | 0.00 | 0.00 | 44 | 1001.4 |
| 20260504040414 | 13 | 237 | 0.0 | 1.6 | 0.00 | 0.00 | 0.00 | 44 | 1001.6 |
| 20260504035916 | 13 | 241 | 0.0 | 1.6 | 0.00 | 0.00 | 0.00 | 44 | 1001.7 |
| 20260504035412 | 13 | 241 | 0.0 | 1.6 | 0.00 | 0.00 | 0.00 | 44 | 1001.9 |
| 20260504034910 | 13 | 241 | 0.0 | 0.0 | 0.00 | 0.00 | 0.00 | 44 | 1002.0 |
| 20260504034409 | 13 | 241 | 0.0 | 0.0 | 0.00 | 0.00 | 0.00 | 44 | 1002.1 |
| 20260504033907 | 14 | 242 | 0.0 | 0.0 | 0.00 | 0.00 | 0.00 | 43 | 1002.2 |
| 20260504033407 | 14 | 242 | 0.0 | 0.0 | 0.00 | 0.00 | 0.00 | 41 | 1002.3 |
| 20260504032905 | 14 | 242 | 0.0 | 0.0 | 0.00 | 0.00 | 0.00 | 41 | 1002.3 |
| 20260504032407 | 14 | 242 | 0.0 | 0.0 | 0.00 | 0.00 | 0.00 | 41 | 1002.4 |
| 20260504031904 | 14 | 242 | 0.0 | 0.0 | 0.00 | 0.00 | 0.00 | 40 | 1002.4 |
| 20260504031631 | 15 | 242 | 0.0 | 0.0 | 0.00 | 0.00 | 0.00 | 40 | 1002.5 |
| 20260504030902 | 15 | 242 | 0.0 | 0.0 | 0.00 | 0.00 | 0.00 | 39 | 1002.5 |
| 20260504030620 | 15 | 242 | 0.0 | 0.0 | 0.00 | 0.00 | 0.00 | 38 | 1002.7 |
| 20260504025901 | 15 | 242 | 0.0 | 0.0 | 0.00 | 0.00 | 0.00 | 38 | 1002.7 |
| 20260504025401 | 15 | 242 | 0.0 | 1.6 | 0.00 | 0.00 | 0.00 | 38 | 1002.7 |
| 20260504024901 | 15 | 242 | 0.0 | 1.6 | 0.00 | 0.00 | 0.00 | 36 | 1002.8 |
| 20260504024402 | 15 | 242 | 0.0 | 4.8 | 0.00 | 0.00 | 0.00 | 36 | 1002.7 |
| 20260504023902 | 16 | 242 | 1.6 | 4.8 | 0.00 | 0.00 | 0.00 | 35 | 1002.8 |
| 20260504023357 | 16 | 252 | 1.6 | 4.8 | 0.00 | 0.00 | 0.00 | 34 | 1002.8 |
| 20260504022857 | 16 | 252 | 1.6 | 6.4 | 0.00 | 0.00 | 0.00 | 34 | 1002.8 |
| 20260504022356 | 16 | 248 | 1.6 | 6.4 | 0.00 | 0.00 | 0.00 | 33 | 1002.8 |
| 20260504021857 | 16 | 254 | 3.2 | 6.4 | 0.00 | 0.00 | 0.00 | 33 | 1002.8 |
| 20260504021354 | 16 | 250 | 3.2 | 6.4 | 0.00 | 0.00 | 0.00 | 33 | 1002.9 |
| 20260504020855 | 16 | 254 | 3.2 | 4.8 | 0.00 | 0.00 | 0.00 | 33 | 1002.9 |
| 20260504020355 | 16 | 250 | 1.6 | 4.8 | 0.00 | 0.00 | 0.00 | 32 | 1002.8 |
| 20260504015854 | 17 | 242 | 1.6 | 4.8 | 0.00 | 0.00 | 0.00 | 31 | 1002.9 |
| 20260504015354 | 17 | 228 | 1.6 | 6.4 | 0.00 | 0.00 | 0.00 | 31 | 1002.8 |
| 20260504014851 | 17 | 225 | 1.6 | 6.4 | 0.00 | 0.00 | 0.00 | 30 | 1002.8 |
| 20260504014350 | 17 | 227 | 1.6 | 4.8 | 0.00 | 0.00 | 0.00 | 30 | 1002.9 |
| 20260504013851 | 18 | 242 | 1.6 | 4.8 | 0.00 | 0.00 | 0.00 | 30 | 1002.9 |
| 20260504013350 | 18 | 245 | 3.2 | 8.0 | 0.00 | 0.00 | 0.00 | 29 | 1002.9 |
| 20260504012852 | 18 | 258 | 3.2 | 8.0 | 0.00 | 0.00 | 0.00 | 29 | 1003.0 |
| 20260504012349 | 18 | 246 | 1.6 | 6.4 | 0.00 | 0.00 | 0.00 | 28 | 1003.1 |
| 20260504011851 | 18 | 262 | 1.6 | 11.3 | 0.00 | 0.00 | 0.00 | 28 | 1003.0 |
| 20260504011403 | 18 | 266 | 1.6 | 11.3 | 0.00 | 0.00 | 0.00 | 28 | 1003.1 |
| 20260504010850 | 19 | 282 | 3.2 | 11.3 | 0.00 | 0.00 | 0.00 | 27 | 1003.1 |
| 20260504010349 | 19 | 276 | 3.2 | 11.3 | 0.00 | 0.00 | 0.00 | 27 | 1003.0 |
| 20260504005850 | 19 | 267 | 3.2 | 9.7 | 0.00 | 0.00 | 0.00 | 27 | 1003.1 |
| 20260504005607 | 19 | 231 | 4.8 | 14.5 | 0.00 | 0.00 | 0.00 | 27 | 1003.1 |
| 20260504004848 | 20 | 257 | 4.8 | 14.5 | 0.00 | 0.00 | 0.00 | 27 | 1003.1 |
| 20260504004350 | 20 | 275 | 4.8 | 16.1 | 0.00 | 0.00 | 0.00 | 26 | 1003.1 |
| 20260504003846 | 20 | 255 | 4.8 | 16.1 | 0.00 | 0.00 | 0.00 | 26 | 1003.1 |
| 20260504003346 | 20 | 262 | 3.2 | 9.7 | 0.00 | 0.00 | 0.00 | 26 | 1003.2 |
| 20260504002847 | 20 | 227 | 3.2 | 9.7 | 0.00 | 0.00 | 0.00 | 26 | 1003.2 |
| 20260504002344 | 20 | 269 | 4.8 | 12.9 | 0.00 | 0.00 | 0.00 | 26 | 1003.2 |
| 20260504002114 | 20 | 234 | 4.8 | 12.9 | 0.00 | 0.00 | 0.00 | 25 | 1003.2 |
| 20260504001340 | 20 | 244 | 3.2 | 11.3 | 0.00 | 0.00 | 0.00 | 26 | 1003.2 |
| 20260504000840 | 21 | 249 | 4.8 | 17.7 | 0.00 | 0.00 | 0.00 | 25 | 1003.2 |
| 20260504000342 | 21 | 256 | 4.8 | 17.7 | 0.00 | 0.00 | 0.00 | 26 | 1003.2 |
| 20260503235834 | 21 | 253 | 4.8 | 12.9 | 0.00 | 0.00 | 0.00 | 25 | 1003.3 |
| 20260503235325 | 21 | 286 | 4.8 | 12.9 | 0.00 | 0.00 | 0.00 | 25 | 1003.3 |
| 20260503234820 | 21 | 309 | 4.8 | 9.7 | 0.00 | 0.00 | 0.00 | 24 | 1003.3 |
| 20260503234313 | 21 | 294 | 4.8 | 17.7 | 0.00 | 0.00 | 0.00 | 23 | 1003.3 |
| 20260503233806 | 21 | 209 | 6.4 | 17.7 | 0.00 | 0.00 | 0.00 | 24 | 1003.3 |
| 20260503233542 | 21 | 276 | 8.0 | 17.7 | 0.00 | 0.00 | 0.00 | 23 | 1003.3 |
| 20260503233023 | 21 | 240 | 6.4 | 19.3 | 0.00 | 0.00 | 0.00 | 24 | 1003.3 |
| 20260503232305 | 21 | 275 | 6.4 | 19.3 | 0.00 | 0.00 | 0.00 | 23 | 1003.4 |
| 20260503231806 | 21 | 304 | 4.8 | 16.1 | 0.00 | 0.00 | 0.00 | 23 | 1003.5 |
| 20260503231305 | 22 | 212 | 4.8 | 16.1 | 0.00 | 0.00 | 0.00 | 22 | 1003.5 |
| 20260503230805 | 21 | 270 | 3.2 | 9.7 | 0.00 | 0.00 | 0.00 | 23 | 1003.6 |
| 20260503230305 | 22 | 281 | 4.8 | 12.9 | 0.00 | 0.00 | 0.00 | 22 | 1003.6 |
| 20260503225804 | 21 | 267 | 4.8 | 16.1 | 0.00 | 0.00 | 0.00 | 22 | 1003.7 |
| 20260503225304 | 22 | 272 | 6.4 | 16.1 | 0.00 | 0.00 | 0.00 | 22 | 1003.7 |
| 20260503224759 | 22 | 333 | 4.8 | 17.7 | 0.00 | 0.00 | 0.00 | 23 | 1003.7 |
| 20260503224258 | 22 | 247 | 3.2 | 16.1 | 0.00 | 0.00 | 0.00 | 23 | 1003.7 |
| 20260503223758 | 22 | 338 | 4.8 | 14.5 | 0.00 | 0.00 | 0.00 | 22 | 1003.7 |
| 20260503223300 | 21 | 290 | 4.8 | 14.5 | 0.00 | 0.00 | 0.00 | 22 | 1003.7 |
| 20260503222758 | 21 | 317 | 4.8 | 12.9 | 0.00 | 0.00 | 0.00 | 22 | 1003.7 |
| 20260503222259 | 21 | 313 | 4.8 | 17.7 | 0.00 | 0.00 | 0.00 | 22 | 1003.9 |
| 20260503222015 | 21 | 355 | 4.8 | 17.7 | 0.00 | 0.00 | 0.00 | 22 | 1003.8 |
| 20260503221247 | 21 | 299 | 4.8 | 14.5 | 0.00 | 0.00 | 0.00 | 22 | 1003.8 |
| 20260503221003 | 22 | 310 | 6.4 | 11.3 | 0.00 | 0.00 | 0.00 | 23 | 1003.8 |
| 20260503220510 | 22 | 313 | 8.0 | 16.1 | 0.00 | 0.00 | 0.00 | 22 | 1004.0 |
| 20260503215743 | 22 | 304 | 6.4 | 16.1 | 0.00 | 0.00 | 0.00 | 23 | 1003.9 |
| 20260503215243 | 21 | 227 | 4.8 | 16.1 | 0.00 | 0.00 | 0.00 | 24 | 1003.9 |
| 20260503214743 | 22 | 314 | 6.4 | 14.5 | 0.00 | 0.00 | 0.00 | 24 | 1004.0 |
| 20260503214243 | 21 | 297 | 8.0 | 14.5 | 0.00 | 0.00 | 0.00 | 22 | 1004.0 |
| 20260503213742 | 21 | 340 | 6.4 | 14.5 | 0.00 | 0.00 | 0.00 | 22 | 1004.1 |
| 20260503213240 | 21 | 313 | 6.4 | 12.9 | 0.00 | 0.00 | 0.00 | 23 | 1003.9 |
| 20260503212741 | 21 | 337 | 6.4 | 16.1 | 0.00 | 0.00 | 0.00 | 22 | 1003.9 |
| 20260503212241 | 21 | 350 | 6.4 | 19.3 | 0.00 | 0.00 | 0.00 | 22 | 1004.0 |
| 20260503211740 | 21 | 315 | 6.4 | 19.3 | 0.00 | 0.00 | 0.00 | 23 | 1004.1 |
| 20260503211241 | 22 | 333 | 6.4 | 12.9 | 0.00 | 0.00 | 0.00 | 20 | 1004.2 |
| 20260503210741 | 22 | 311 | 6.4 | 22.5 | 0.00 | 0.00 | 0.00 | 23 | 1004.2 |
| 20260503210239 | 22 | 331 | 4.8 | 22.5 | 0.00 | 0.00 | 0.00 | 21 | 1004.3 |
| 20260503205738 | 22 | 303 | 4.8 | 9.7 | 0.00 | 0.00 | 0.00 | 27 | 1004.3 |
| 20260503205233 | 22 | 223 | 4.8 | 9.7 | 0.00 | 0.00 | 0.00 | 26 | 1004.2 |
| 20260503205202 | 22 | 323 | 4.8 | 14.5 | 0.00 | 0.00 | 0.00 | 25 | 1004.3 |
| 20260503204826 | 22 | 295 | 4.8 | 12.9 | 0.00 | 0.00 | 0.00 | 25 | 1004.3 |
| 20260503203726 | 22 | 269 | 4.8 | 14.5 | 0.00 | 0.00 | 0.00 | 25 | 1004.3 |
| 20260503203227 | 21 | 325 | 4.8 | 12.9 | 0.00 | 0.00 | 0.00 | 24 | 1004.5 |
| 20260503202726 | 21 | 309 | 6.4 | 16.1 | 0.00 | 0.00 | 0.00 | 24 | 1004.4 |
| 20260503202226 | 22 | 287 | 6.4 | 16.1 | 0.00 | 0.00 | 0.00 | 24 | 1004.6 |
| 20260503201726 | 21 | 300 | 8.0 | 16.1 | 0.00 | 0.00 | 0.00 | 24 | 1004.6 |
| 20260503201452 | 21 | 336 | 6.4 | 16.1 | 0.00 | 0.00 | 0.00 | 23 | 1004.7 |
| 20260503200724 | 22 | 300 | 6.4 | 16.1 | 0.00 | 0.00 | 0.00 | 23 | 1004.6 |
| 20260503200224 | 22 | 341 | 6.4 | 16.1 | 0.00 | 0.00 | 0.00 | 23 | 1004.7 |
| 20260503195946 | 22 | 344 | 6.4 | 16.1 | 0.00 | 0.00 | 0.00 | 23 | 1004.7 |
| 20260503195225 | 21 | 355 | 4.8 | 16.1 | 0.00 | 0.00 | 0.00 | 24 | 1004.8 |
| 20260503194722 | 22 | 309 | 6.4 | 16.1 | 0.00 | 0.00 | 0.00 | 26 | 1004.9 |
| 20260503194222 | 22 | 330 | 8.0 | 19.3 | 0.00 | 0.00 | 0.00 | 24 | 1005.0 |
| 20260503193724 | 22 | 304 | 6.4 | 19.3 | 0.00 | 0.00 | 0.00 | 24 | 1005.0 |
| 20260503193217 | 22 | 299 | 6.4 | 16.1 | 0.00 | 0.00 | 0.00 | 25 | 1005.0 |
| 20260503192710 | 22 | 355 | 6.4 | 16.1 | 0.00 | 0.00 | 0.00 | 26 | 1005.0 |
| 20260503192210 | 21 | 348 | 6.4 | 16.1 | 0.00 | 0.00 | 0.00 | 26 | 1005.0 |
| 20260503191710 | 21 | 17 | 8.0 | 19.3 | 0.00 | 0.00 | 0.00 | 25 | 1005.1 |
| 20260503191210 | 21 | 313 | 6.4 | 19.3 | 0.00 | 0.00 | 0.00 | 24 | 1005.1 |
| 20260503190711 | 21 | 301 | 6.4 | 16.1 | 0.00 | 0.00 | 0.00 | 25 | 1005.0 |
| 20260503190212 | 21 | 342 | 6.4 | 27.4 | 0.00 | 0.00 | 0.00 | 25 | 1005.0 |
| 20260503185933 | 21 | 309 | 6.4 | 27.4 | 0.00 | 0.00 | 0.00 | 25 | 1004.9 |
| 20260503185210 | 21 | 0 | 6.4 | 17.7 | 0.00 | 0.00 | 0.00 | 29 | 1005.1 |
| 20260503184712 | 21 | 320 | 8.0 | 17.7 | 0.00 | 0.00 | 0.00 | 29 | 1005.1 |
| 20260503184217 | 21 | 330 | 6.4 | 16.1 | 0.00 | 0.00 | 0.00 | 28 | 1005.1 |
| 20260503183711 | 21 | 334 | 6.4 | 16.1 | 0.00 | 0.00 | 0.00 | 29 | 1005.1 |
| 20260503183211 | 21 | 336 | 8.0 | 16.1 | 0.00 | 0.00 | 0.00 | 30 | 1005.2 |
| 20260503182929 | 21 | 317 | 8.0 | 16.1 | 0.00 | 0.00 | 0.00 | 32 | 1005.2 |
| 20260503182200 | 21 | 309 | 8.0 | 16.1 | 0.00 | 0.00 | 0.00 | 32 | 1005.3 |
| 20260503181701 | 21 | 257 | 6.4 | 14.5 | 0.00 | 0.00 | 0.00 | 34 | 1005.2 |
| 20260503181432 | 21 | 290 | 6.4 | 19.3 | 0.00 | 0.00 | 0.00 | 32 | 1005.2 |
| 20260503180701 | 21 | 331 | 6.4 | 19.3 | 0.00 | 0.00 | 0.00 | 31 | 1005.3 |
| 20260503180421 | 21 | 355 | 6.4 | 16.1 | 0.00 | 0.00 | 0.00 | 35 | 1005.3 |
| 20260503175701 | 21 | 329 | 6.4 | 16.1 | 0.00 | 0.00 | 0.00 | 34 | 1005.3 |
| 20260503175428 | 21 | 338 | 6.4 | 19.3 | 0.00 | 0.00 | 0.00 | 34 | 1005.4 |
| 20260503174700 | 20 | 323 | 8.0 | 19.3 | 0.00 | 0.00 | 0.00 | 34 | 1005.4 |
| 20260503174200 | 21 | 337 | 6.4 | 17.7 | 0.00 | 0.00 | 0.00 | 34 | 1005.5 |
| 20260503173701 | 21 | 327 | 6.4 | 17.7 | 0.00 | 0.00 | 0.00 | 36 | 1005.4 |
| 20260503173408 | 20 | 338 | 6.4 | 20.9 | 0.00 | 0.00 | 0.00 | 36 | 1005.5 |
| 20260503173255 | 20 | 315 | 8.0 | 20.9 | 0.00 | 0.00 | 0.00 | 34 | 1005.4 |
| 20260503172158 | 21 | 312 | 6.4 | 20.9 | 0.00 | 0.00 | 0.00 | 37 | 1005.5 |
| 20260503171658 | 20 | 306 | 6.4 | 19.3 | 0.00 | 0.00 | 0.00 | 40 | 1005.4 |
| 20260503171159 | 20 | 317 | 6.4 | 19.3 | 0.00 | 0.00 | 0.00 | 36 | 1005.5 |
| 20260503170918 | 20 | 309 | 8.0 | 17.7 | 0.00 | 0.00 | 0.00 | 39 | 1005.6 |
| 20260503170159 | 20 | 331 | 8.0 | 17.7 | 0.00 | 0.00 | 0.00 | 37 | 1005.7 |
| 20260503150655 | 17 | 323 | 8.0 | 22.5 | 0.00 | 0.00 | 0.00 | 43 | 1005.3 |
| 20260503150152 | 17 | 315 | 8.0 | 22.5 | 0.00 | 0.00 | 0.00 | 43 | 1005.3 |
| 20260503140150 | 15 | 5 | 6.4 | 9.7 | 0.00 | 0.00 | 0.00 | 48 | 1005.0 |
| 20260503131406 | 12 | 309 | 4.8 | 14.5 | 0.00 | 0.00 | 0.00 | 51 | 1004.5 |
| 20260503131128 | 12 | 305 | 3.2 | 9.7 | 0.00 | 0.00 | 0.00 | 52 | 1004.5 |
| 20260503130138 | 12 | 321 | 1.6 | 6.4 | 0.00 | 0.00 | 0.00 | 54 | 1004.5 |
| 20260503120124 | 10 | 257 | 1.6 | 6.4 | 0.00 | 0.00 | 0.00 | 60 | 1003.9 |
| 20260503110114 | 10 | 227 | 1.6 | 4.8 | 0.00 | 0.00 | 0.00 | 55 | 1003.2 |
| 20260503100111 | 12 | 165 | 3.2 | 6.4 | 0.00 | 0.00 | 0.00 | 50 | 1003.7 |
| 20260503081542 | 13 | 200 | 3.2 | 9.7 | 0.00 | 0.00 | 0.00 | 47 | 1004.3 |
| 20260503081042 | 13 | 192 | 4.8 | 16.1 | 0.00 | 0.00 | 0.00 | 48 | 1004.4 |